« Back
NWS Peachtree City, Ga » Text Product » GA Regional Weather Roundup


Printer-friendly Version
Current Version              Previous Versions:   1  2  3  4  5  6  7  8  9  

Regional Weather Roundup

333
ASUS42 KFFC 182303
RWRGA
WEATHER ROUNDUP FOR GEORGIA
NATIONAL WEATHER SERVICE PEACHTREE CITY GA
700 PM EDT SAT APR 18 2015

NOTE: "FAIR" INDICATES FEW OR NO CLOUDS BELOW 12,000 FEET WITH NO
SIGNIFICANT WEATHER AND/OR OBSTRUCTIONS TO VISIBILITY.

* = USE WITH CAUTION. THE STATIONS MARKED WITH AN ASTERISK MAY NOT
REPORT WEATHER SUCH AS PRECIPITATION, FOG, OR THUNDER AND ARE NOT
QUALITY CONTROLLED BY NWS.

THE REMARK "TC" DENOTES TEMPERATURE READING IN DEGREES CELSIUS.

GAZ001>058-190000-
NORTH GEORGIA

CITY           SKY/WX    TMP DP  RH WIND       PRES   REMARKS
ATLANTA        PTSUNNY   70  65  84 E6        29.92S
ATHENS         CLOUDY    70  65  84 E5        29.93F
CHAMBLEE       CLOUDY    69  63  81 VRB5      29.92S
PEACHTREE CITY PTSUNNY   72  68  87 CALM      29.92R
ROME           CLOUDY    72  64  76 SE3       29.90R
WEST ATLANTA   CLOUDY    69  66  90 N5        29.92S
GAINESVILLE    CLOUDY    69  62  78 E9        29.94F
CARTERSVILLE   CLOUDY    71  64  78 CALM      29.92R


CITY           SKY/WX    TMP DP  RH WIND       PRES   REMARKS
DALTON*        CLOUDY    72  64  78 CALM      29.91R
LAWRENCEVILLE* CLOUDY    66  61  82 CALM      29.92F
MARIETTA       CLOUDY    68  67  95 S3        29.93R
KENNESAW*      CLOUDY    70  64  83 CALM      29.93S
BLAIRSVILLE*     N/A     70  36  28 S6        29.95S
$$

GAZ059>098-102>109-190000-
CENTRAL GEORGIA

CITY           SKY/WX    TMP DP  RH WIND       PRES   REMARKS
AUGUSTA-BUSH   PTSUNNY   72  66  81 NE5       29.92S
AUGUSTA-DANIEL PTSUNNY   73  66  78 NE5       29.93F
COLUMBUS       CLOUDY    72  66  81 SW7       29.92R
MACON          PTSUNNY   76  67  73 CALM      29.90S
ROBINS AFB     PTSUNNY   76  68  78 E2        29.90S


CITY           SKY/WX    TMP DP  RH WIND       PRES   REMARKS
LAGRANGE*      CLOUDY    74  72  92 CALM      29.93R
SYLVANIA*      PTSUNNY   76  70  81 CALM      29.92R
MILLEDGEVILLE* PTSUNNY   73  70  88 CALM      29.91F
$$

GAZ099>101-110>166-190000-
SOUTH GEORGIA

CITY           SKY/WX    TMP DP  RH WIND       PRES   REMARKS
SAVANNAH       PTSUNNY   75  67  76 E9        29.91S
VALDOSTA       CLOUDY    72  71  97 CALM      29.92F
ALMA           PTSUNNY   80  66  62 NW3       29.90F
ST SIMONS      MOSUNNY   72  69  90 E8        29.91F
FT STEWART     MOSUNNY   78  70  76 SE8       29.88F
ALBANY         CLOUDY    76  66  71 CALM      29.93R
HUNTER AFB     MOSUNNY   73  69  87 E9        29.90R
MOODY AFB      CLOUDY    73  70  90 SW3       29.91S
BRUNSWICK      MOSUNNY   75  70  83 E7        29.92S


CITY           SKY/WX    TMP DP  RH WIND       PRES   REMARKS
BAINBRIDGE*    CLOUDY    79  73  83 SW3       29.92R
MOULTRIE*      CLOUDY    77  73  88 CALM      29.92S
VIDALIA*       HVY RAIN  79  68  69 CALM      29.91S
WAYCROSS*      PTSUNNY   84  71  65 NW3       29.90S HX  90
DOUGLAS*       CLOUDY    81  68  65 NW3       29.92S
$$



USA.gov is the U.S. government's official web portal to all federal, state and local government web resources and services.